Regional Weather Roundup
Issued by NWS Sioux Falls, SD

Home | Current Version | Previous Version | Text Only | Print | Product List | Glossary Off
Versions: 1 2 3 4 5 6 7 8 9 10 11 12 13 14 15 16 17 18 19 20 21 22 23 24 25 26 27 28 29 30 31 32 33 34 35 36 37 38 39 40 41 42 43 44 45 46 47 48 49 50

000
ASUS43 KFSD 080802
RWRFSD

WEATHER ROUNDUP FOR SE SOUTH DAKOTA/SW MINNESOTA/NW IOWA
NATIONAL WEATHER SERVICE SIOUX FALLS SD
200 AM CST THU DEC 08 2016

NOTE: "FAIR" INDICATES FEW OR NO CLOUDS BELOW 12,000 FEET WITH NO
SIGNIFICANT WEATHER AND OR OBSTRUCTIONS TO VISIBILITY.


SDZ038>040-050-052>070-080900-
SOUTHEAST SOUTH DAKOTA

CITY           SKY/WX    TMP DP  RH WIND       PRES   REMARKS
CHAMBERLAIN    PTCLDY     8   3  78 NW16      30.51F WCI -10
HURON          FLURRIES   7   2  80 NW25G32   30.46R WCI -15
MADISON        LGT RAIN   7   5  92 NW24G30   30.36R WCI -15
MITCHELL       CLEAR      8   1  73 NW18      30.50R WCI -11
SIOUX FALLS    CLOUDY     8   3  80 NW23G31   30.39R WCI -13
WINNER         PTSUNNY    7  -2  66 NW16      30.52R WCI -11
YANKTON        PTCLDY   N/A N/A N/A NW25G32   30.46S
$$

MNZ071-072-080-081-089-090-097-098-080900-
SOUTHWEST MINNESOTA

CITY           SKY/WX    TMP DP  RH WIND       PRES   REMARKS
FAIRMONT       FLURRIES  11   5  77 W22G30    30.27R WCI  -8
JACKSON        CLOUDY     9   3  78 W22G29    30.27S WCI -11
LUVERNE        CLOUDY    10   3  72 NW22G31   30.36R WCI  -9
MARSHALL       FLURRIES  12   6  77 NW25G31   30.30R WCI  -8
MONTEVIDEO     LGT SNOW  14  10  85 N17G29    30.29S WCI  -3
PIPESTONE      LGT SNOW   9   3  78 NW17G29   30.31R WCI -10
REDWOOD FALLS  LGT SNOW  14   8  77 W18G29    30.27R WCI  -3
TRACY          FLURRIES  12   7  80 NW20G26   30.30R WCI  -6
WINDOM         LGT SNOW  10   7  85 W25       30.26S WCI -10
WORTHINGTON    FLURRIES   8   3  80 W23G33    30.29S WCI -13
$$

IAZ001>003-012>014-020>022-031-032-NEZ013-014-SDZ071-080900-
NORTHWEST IOWA

CITY           SKY/WX    TMP DP  RH WIND       PRES   REMARKS
CHEROKEE       CLEAR     10   3  75 NW14G23   30.39R WCI  -7
DENISON        CLOUDY    10   5  79 NW18G29   30.39S WCI  -8
ESTHERVILLE    PTCLDY     9   4  80 W26G36    30.29R WCI -13
LE MARS        PTCLDY    10   3  72 NW18G26   30.44R WCI  -8
ORANGE CITY    CLEAR      9   3  78 NW24G31   30.37S WCI -12
SHELDON        CLOUDY     9   3  78 NW21G26   30.34S WCI -11
SIOUX CITY     PTCLDY    14   3  61 NW21G32   30.43R WCI  -4
SPENCER        CLEAR      9   3  77 W29G36    30.33S WCI -13
STORM LAKE     PTCLDY     9   3  78 NW21G31   30.34S WCI -11
$$

ABBREVIATIONS USED IN REMARKS
   TC - TEMPERATURE IN CELSIUS
  WCI - WIND CHILL INDEX
   HX - HEAT INDEX
  VSB - VISIBILITY





USA.gov is the U.S. government's official web portal to all federal, state and local government web resources and services.